Hourly Data Report for April 07, 2006

TORONTO CITY
ONTARIO

43°40'00.000" N
79°24'00.000" W
112.50 m
6158355
71508
XTO

Download Data

Hourly Data (April 2006)
Hourly Data Report for April 7, 2006
TIME
LST
Temp Definition
°C
Dew Point Definition
°C
Rel Hum Definition
%
Precip. Amount Definition
mm

Wind Dir Definition
10's deg

Wind Spd Definition
km/h
Visibility Definition
km
Stn Press Definition
kPa
Hmdx Definition


Wind Chill Definition


Weather Definition


00:00 7.7 2.0 67   LegendMM LegendMM   99.35     LegendNANA
01:00 7.1 1.3 67   LegendMM LegendMM   99.31     LegendNANA
02:00 6.9 1.3 67   LegendMM LegendMM   99.20     LegendNANA
03:00 7.5 1.0 63   LegendMM LegendMM   99.10     LegendNANA
04:00 8.0 1.2 62   LegendMM LegendMM   99.01     LegendNANA
05:00 7.0 1.0 66   LegendMM LegendMM   98.93     LegendNANA
06:00 6.6 1.2 68   LegendMM LegendMM   98.80     LegendNANA
07:00 6.9 1.6 69   LegendMM LegendMM   98.78     LegendNANA
08:00 6.2 2.8 79   LegendMM LegendMM   98.77     LegendNANA
09:00 6.1 4.5 89   LegendMM LegendMM   98.76     LegendNANA
10:00 6.3 5.2 93   LegendMM LegendMM   98.64     LegendNANA
11:00 6.1 5.2 94   LegendMM LegendMM   98.59     LegendNANA
12:00 6.6 5.8 95   LegendMM LegendMM   98.58     LegendNANA
13:00 7.0 5.3 89   LegendMM LegendMM   98.58     LegendNANA
14:00 7.1 5.8 91   LegendMM LegendMM   98.53     LegendNANA
15:00 7.1 5.9 92   LegendMM LegendMM   98.70     LegendNANA
16:00 6.3 5.1 92   LegendMM LegendMM   98.83     LegendNANA
17:00 4.3 2.6 89   LegendMM LegendMM   98.93     LegendNANA
18:00 3.6 2.0 89   LegendMM LegendMM   99.07     LegendNANA
19:00 3.0 1.1 87   LegendMM LegendMM   99.22     LegendNANA
20:00 3.2 0.6 83   LegendMM LegendMM   99.35     LegendNANA
21:00 3.4 0.3 80   LegendMM LegendMM   99.44     LegendNANA
22:00 3.4 0.7 82   LegendMM LegendMM   99.44     LegendNANA
23:00 3.2 -3.0 64   LegendMM LegendMM   99.49     LegendNANA

Notes on Data Quality.

Legend

  • E = Estimated
  • M = Missing
  • NA = Not Available*
  • [empty] = Indicates an unobserved value
Date modified: